Time,TemperatureF,DewpointF,PressureIn,WindDirection,WindDirectionDegrees,WindSpeedMPH,WindSpeedGustMPH,Humidity,HourlyPrecipIn,Conditions,Clouds,dailyrainin,SolarRadiationWatts/m^2,SoftwareType,DateUTC
2013-01-20 00:00:00,41.0,29.0,-100.00,SE,135,16.0,-999.0,62,-99.99,,,-99.99,0.000000,,2013-01-20 05:00:00,
2013-01-20 00:43:00,41.0,29.0,-100.00,SE,135,16.0,-999.0,62,-99.99,,,-99.99,0.000000,,2013-01-20 05:43:00,
2013-01-20 00:53:00,41.0,29.0,-100.00,SE,135,16.0,-999.0,62,-99.99,,,-99.99,0.000000,,2013-01-20 05:53:00,
2013-01-20 01:00:00,36.0,19.0,-100.00,SE,135,22.0,-999.0,49,-99.99,,,-99.99,0.000000,,2013-01-20 06:00:00,
2013-01-20 01:33:00,36.0,19.0,-100.00,SE,135,22.0,-999.0,49,-99.99,,,-99.99,0.000000,,2013-01-20 06:33:00,
2013-01-20 01:43:00,36.0,19.0,-100.00,SE,135,22.0,-999.0,49,-99.99,,,-99.99,0.000000,,2013-01-20 06:43:00,
2013-01-20 01:53:00,36.0,19.0,-100.00,SE,135,22.0,-999.0,49,-99.99,,,-99.99,0.000000,,2013-01-20 06:53:00,
2013-01-20 02:00:00,29.0,13.0,-100.00,SSE,157,20.0,-999.0,50,-99.99,,,-99.99,0.000000,,2013-01-20 07:00:00,
2013-01-20 02:32:00,29.0,13.0,-100.00,SSE,157,20.0,-999.0,50,-99.99,,,-99.99,0.000000,,2013-01-20 07:32:00,
2013-01-20 02:42:00,29.0,13.0,-100.00,SSE,157,20.0,-999.0,50,-99.99,,,-99.99,0.000000,,2013-01-20 07:42:00,
2013-01-20 02:52:00,29.0,13.0,-100.00,SSE,157,20.0,-999.0,50,-99.99,,,-99.99,0.000000,,2013-01-20 07:52:00,
2013-01-20 03:00:00,25.0,11.0,-100.00,SSE,157,19.0,-999.0,54,-99.99,,,-99.99,0.000000,,2013-01-20 08:00:00,
2013-01-20 03:42:00,25.0,11.0,-100.00,SSE,157,19.0,-999.0,54,-99.99,,,-99.99,0.000000,,2013-01-20 08:42:00,
2013-01-20 03:53:00,25.0,11.0,-100.00,SSE,157,19.0,-999.0,54,-99.99,,,-99.99,0.000000,,2013-01-20 08:53:00,
2013-01-20 04:00:00,23.0,11.0,-100.00,SSE,157,17.0,-999.0,59,-99.99,,,-99.99,0.000000,,2013-01-20 09:00:00,
2013-01-20 04:42:00,23.0,11.0,-100.00,SSE,157,17.0,-999.0,59,-99.99,,,-99.99,0.000000,,2013-01-20 09:42:00,
2013-01-20 04:53:00,23.0,11.0,-100.00,SSE,157,17.0,-999.0,59,-99.99,,,-99.99,0.000000,,2013-01-20 09:53:00,
2013-01-20 05:00:00,21.0,10.0,-100.00,South,180,16.0,-999.0,61,-99.99,,,-99.99,0.000000,,2013-01-20 10:00:00,
2013-01-20 05:42:00,21.0,10.0,-100.00,South,180,16.0,-999.0,61,-99.99,,,-99.99,0.000000,,2013-01-20 10:42:00,
2013-01-20 05:52:00,21.0,10.0,-100.00,South,180,16.0,-999.0,61,-99.99,,,-99.99,0.000000,,2013-01-20 10:52:00,
2013-01-20 06:00:00,19.0,8.0,-100.00,SSE,157,16.0,-999.0,62,-99.99,,,-99.99,0.000000,,2013-01-20 11:00:00,
2013-01-20 06:33:00,19.0,8.0,-100.00,SSE,157,16.0,-999.0,62,-99.99,,,-99.99,0.000000,,2013-01-20 11:33:00,
2013-01-20 06:43:00,19.0,8.0,-100.00,SSE,157,16.0,-999.0,62,-99.99,,,-99.99,0.000000,,2013-01-20 11:43:00,
2013-01-20 06:53:00,19.0,8.0,-100.00,SSE,157,16.0,-999.0,62,-99.99,,,-99.99,0.000000,,2013-01-20 11:53:00,
2013-01-20 07:00:00,18.0,8.0,-100.00,SSE,157,16.0,-999.0,66,-99.99,,,-99.99,0.000000,,2013-01-20 12:00:00,
2013-01-20 07:33:00,18.0,8.0,-100.00,SSE,157,16.0,-999.0,66,-99.99,,,-99.99,0.000000,,2013-01-20 12:33:00,
2013-01-20 07:43:00,18.0,8.0,-100.00,SSE,157,16.0,-999.0,66,-99.99,,,-99.99,0.000000,,2013-01-20 12:43:00,
2013-01-20 07:53:00,18.0,8.0,-100.00,SSE,157,16.0,-999.0,66,-99.99,,,-99.99,0.000000,,2013-01-20 12:53:00,
2013-01-20 08:00:00,17.0,8.0,-100.00,SSE,157,14.0,-999.0,68,-99.99,,,-99.99,0.000000,,2013-01-20 13:00:00,
2013-01-20 08:33:00,17.0,8.0,-100.00,SSE,157,14.0,-999.0,68,-99.99,,,-99.99,0.000000,,2013-01-20 13:33:00,
2013-01-20 08:43:00,17.0,8.0,-100.00,SSE,157,14.0,-999.0,68,-99.99,,,-99.99,0.000000,,2013-01-20 13:43:00,
2013-01-20 08:53:00,17.0,8.0,-100.00,SSE,157,14.0,-999.0,68,-99.99,,,-99.99,0.000000,,2013-01-20 13:53:00,
2013-01-20 09:00:00,17.0,9.0,-100.00,South,180,11.0,-999.0,72,-99.99,,,-99.99,5.800000,,2013-01-20 14:00:00,
2013-01-20 09:43:00,17.0,9.0,-100.00,South,180,11.0,-999.0,72,-99.99,,,-99.99,5.800000,,2013-01-20 14:43:00,
2013-01-20 09:53:00,17.0,9.0,-100.00,South,180,11.0,-999.0,72,-99.99,,,-99.99,5.800000,,2013-01-20 14:53:00,
2013-01-20 10:00:00,17.0,10.0,-100.00,South,180,10.0,-999.0,75,-99.99,,,-99.99,26.680000,,2013-01-20 15:00:00,
2013-01-20 10:43:00,17.0,10.0,-100.00,South,180,10.0,-999.0,75,-99.99,,,-99.99,26.680000,,2013-01-20 15:43:00,
2013-01-20 10:53:00,17.0,10.0,-100.00,South,180,10.0,-999.0,75,-99.99,,,-99.99,26.680000,,2013-01-20 15:53:00,
2013-01-20 11:00:00,17.0,10.0,-100.00,SSE,157,10.0,-999.0,75,-99.99,,,-99.99,56.840000,,2013-01-20 16:00:00,
2013-01-20 11:43:00,17.0,10.0,-100.00,SSE,157,10.0,-999.0,75,-99.99,,,-99.99,56.840000,,2013-01-20 16:43:00,
2013-01-20 11:53:00,17.0,10.0,-100.00,SSE,157,10.0,-999.0,75,-99.99,,,-99.99,56.840000,,2013-01-20 16:53:00,
2013-01-20 12:00:00,17.0,10.0,-100.00,SSE,157,10.0,-999.0,72,-99.99,,,-99.99,81.199997,,2013-01-20 17:00:00,
2013-01-20 12:43:00,17.0,10.0,-100.00,SSE,157,10.0,-999.0,72,-99.99,,,-99.99,81.199997,,2013-01-20 17:43:00,
2013-01-20 12:53:00,17.0,10.0,-100.00,SSE,157,10.0,-999.0,72,-99.99,,,-99.99,81.199997,,2013-01-20 17:53:00,
2013-01-20 13:00:00,17.0,10.0,-100.00,SSE,157,9.0,-999.0,72,-99.99,,,-99.99,124.120003,,2013-01-20 18:00:00,
2013-01-20 13:33:00,17.0,10.0,-100.00,SSE,157,9.0,-999.0,72,-99.99,,,-99.99,124.120003,,2013-01-20 18:33:00,
2013-01-20 13:43:00,17.0,10.0,-100.00,SSE,157,9.0,-999.0,72,-99.99,,,-99.99,124.120003,,2013-01-20 18:43:00,
2013-01-20 13:53:00,17.0,10.0,-100.00,SSE,157,9.0,-999.0,72,-99.99,,,-99.99,124.120003,,2013-01-20 18:53:00,
2013-01-20 14:00:00,18.0,10.0,-100.00,SSE,157,10.0,-999.0,70,-99.99,,,-99.99,148.479996,,2013-01-20 19:00:00,
2013-01-20 14:43:00,18.0,10.0,-100.00,SSE,157,10.0,-999.0,70,-99.99,,,-99.99,148.479996,,2013-01-20 19:43:00,
2013-01-20 14:53:00,18.0,10.0,-100.00,SSE,157,10.0,-999.0,70,-99.99,,,-99.99,148.479996,,2013-01-20 19:53:00,
2013-01-20 15:00:00,18.0,10.0,-100.00,SSE,157,10.0,-999.0,70,-99.99,,,-99.99,112.519997,,2013-01-20 20:00:00,
2013-01-20 15:42:00,18.0,10.0,-100.00,SSE,157,10.0,-999.0,70,-99.99,,,-99.99,112.519997,,2013-01-20 20:42:00,
2013-01-20 15:53:00,18.0,10.0,-100.00,SSE,157,10.0,-999.0,70,-99.99,,,-99.99,112.519997,,2013-01-20 20:53:00,
2013-01-20 16:00:00,19.0,10.0,-100.00,SSE,157,8.0,-999.0,68,-99.99,,,-99.99,74.239998,,2013-01-20 21:00:00,
2013-01-20 16:43:00,19.0,10.0,-100.00,SSE,157,8.0,-999.0,68,-99.99,,,-99.99,74.239998,,2013-01-20 21:43:00,
2013-01-20 16:53:00,19.0,10.0,-100.00,SSE,157,8.0,-999.0,68,-99.99,,,-99.99,74.239998,,2013-01-20 21:53:00,
2013-01-20 17:00:00,19.0,9.0,-100.00,SSE,157,8.0,-999.0,64,-99.99,,,-99.99,41.759998,,2013-01-20 22:00:00,
2013-01-20 17:43:00,19.0,9.0,-100.00,SSE,157,8.0,-999.0,64,-99.99,,,-99.99,41.759998,,2013-01-20 22:43:00,
2013-01-20 17:53:00,19.0,9.0,-100.00,SSE,157,8.0,-999.0,64,-99.99,,,-99.99,41.759998,,2013-01-20 22:53:00,
2013-01-20 18:00:00,19.0,7.0,-100.00,SSE,157,8.0,-999.0,59,-99.99,,,-99.99,10.440000,,2013-01-20 23:00:00,
2013-01-20 18:43:00,19.0,7.0,-100.00,SSE,157,8.0,-999.0,59,-99.99,,,-99.99,10.440000,,2013-01-20 23:43:00,
2013-01-20 18:53:00,19.0,7.0,-100.00,SSE,157,8.0,-999.0,59,-99.99,,,-99.99,10.440000,,2013-01-20 23:53:00,
2013-01-20 19:00:00,19.0,6.0,-100.00,SSE,157,7.0,-999.0,57,-99.99,,,-99.99,0.000000,,2013-01-21 00:00:00,
2013-01-20 19:43:00,19.0,6.0,-100.00,SSE,157,7.0,-999.0,57,-99.99,,,-99.99,0.000000,,2013-01-21 00:43:00,
2013-01-20 19:54:00,19.0,6.0,-100.00,SSE,157,7.0,-999.0,57,-99.99,,,-99.99,0.000000,,2013-01-21 00:54:00,
2013-01-20 20:00:00,19.0,7.0,-100.00,SSE,157,6.0,-999.0,57,-99.99,,,-99.99,0.000000,,2013-01-21 01:00:00,
2013-01-20 20:43:00,19.0,7.0,-100.00,SSE,157,6.0,-999.0,57,-99.99,,,-99.99,0.000000,,2013-01-21 01:43:00,
2013-01-20 20:53:00,19.0,7.0,-100.00,SSE,157,6.0,-999.0,57,-99.99,,,-99.99,0.000000,,2013-01-21 01:53:00,
2013-01-20 21:00:00,19.0,7.0,-100.00,SSE,157,7.0,-999.0,57,-99.99,,,-99.99,0.000000,,2013-01-21 02:00:00,
2013-01-20 21:43:00,19.0,7.0,-100.00,SSE,157,7.0,-999.0,57,-99.99,,,-99.99,0.000000,,2013-01-21 02:43:00,
2013-01-20 21:53:00,19.0,7.0,-100.00,SSE,157,7.0,-999.0,57,-99.99,,,-99.99,0.000000,,2013-01-21 02:53:00,
2013-01-20 22:00:00,19.0,6.0,-100.00,SSE,157,6.0,-999.0,56,-99.99,,,-99.99,0.000000,,2013-01-21 03:00:00,
2013-01-20 22:33:00,19.0,6.0,-100.00,SSE,157,6.0,-999.0,56,-99.99,,,-99.99,0.000000,,2013-01-21 03:33:00,
2013-01-20 22:43:00,19.0,6.0,-100.00,SSE,157,6.0,-999.0,56,-99.99,,,-99.99,0.000000,,2013-01-21 03:43:00,
2013-01-20 22:53:00,19.0,6.0,-100.00,SSE,157,6.0,-999.0,56,-99.99,,,-99.99,0.000000,,2013-01-21 03:53:00,
2013-01-20 23:00:00,19.0,6.0,-100.00,SE,135,7.0,-999.0,55,-99.99,,,-99.99,0.000000,,2013-01-21 04:00:00,
2013-01-20 23:33:00,19.0,6.0,-100.00,SE,135,7.0,-999.0,55,-99.99,,,-99.99,0.000000,,2013-01-21 04:33:00,
2013-01-20 23:43:00,19.0,6.0,-100.00,SE,135,7.0,-999.0,55,-99.99,,,-99.99,0.000000,,2013-01-21 04:43:00,
2013-01-20 23:53:00,19.0,6.0,-100.00,SE,135,7.0,-999.0,55,-99.99,,,-99.99,0.000000,,2013-01-21 04:53:00,